DW3478 Weather Reports


Display with metric or nautical units.
time (UTC)temp
F
wind
direction
speed
MPH
gust
MPH
rain 1hr
in
rain 24hr
in
rain mn
in
humidity
%
barometer
mb
20180719090809 68 40 1.0 3.0 0.00 0.00 0.00 68 1019.6
20180719085810 68 40 3.0 3.0 0.00 0.00 0.00 68 1019.5
20180719083809 67 40 2.0 3.0 0.00 0.00 0.00 69 1019.4
20180719081809 67 40 2.0 5.0 0.00 0.00 0.00 70 1019.2
20180719080809 67 40 1.0 3.0 0.00 0.00 0.00 70 1019.2
20180719075810 66 40 1.0 3.0 0.00 0.00 0.00 71 1019.0
20180719073809 65 40 0.0 1.0 0.00 0.00 0.00 74 1019.0
20180719072809 64 40 0.0 3.0 0.00 0.00 0.00 75 1018.8
20180719071810 64 40 1.0 3.0 0.00 0.00 0.00 75 1018.8
20180719070810 63 40 3.0 3.0 0.00 0.00 0.00 76 1018.6
20180719065809 63 40 2.0 3.0 0.00 0.00 0.00 76 1018.5
20180719064809 63 40 3.0 3.0 0.00 0.00 0.00 76 1018.4
20180719063809 63 40 3.0 5.0 0.00 0.00 0.00 75 1018.5
20180719061809 63 40 3.0 5.0 0.00 0.00 0.00 73 1018.4
20180719055809 64 40 5.0 5.0 0.00 0.00 0.00 72 1018.3
20180719052810 64 40 5.0 6.0 0.00 0.00 0.00 72 1018.3
20180719051809 64 40 5.0 5.0 0.00 0.00 0.00 73 1018.4
20180719050809 64 40 5.0 5.0 0.00 0.00 0.00 72 1018.3
20180719045810 64 40 3.0 5.0 0.00 0.00 0.00 72 1018.3
20180719041809 64 40 2.0 5.0 0.00 0.00 0.00 71 1018.1
20180719040809 64 40 3.0 5.0 0.00 0.00 0.00 69 1018.2
20180719033810 66 40 6.0 12.0 0.00 0.00 0.00 67 1018.3
20180719032809 66 43 2.0 5.0 0.00 0.00 0.00 67 1018.5
20180719031809 66 43 3.0 6.0 0.00 0.00 0.00 67 1018.6
20180719025810 66 43 3.0 10.0 0.00 0.00 0.00 66 1018.8
20180719024809 66 43 3.0 5.0 0.00 0.00 0.00 68 1019.0
20180719022809 65 43 2.0 5.0 0.00 0.00 0.00 71 1018.9
20180719021810 65 43 2.0 3.0 0.00 0.00 0.00 73 1019.0
20180719020809 65 43 2.0 3.0 0.00 0.00 0.00 74 1019.0
20180719015810 65 43 2.0 3.0 0.00 0.00 0.00 73 1019.0
20180719014810 65 43 2.0 3.0 0.00 0.00 0.00 74 1019.0
20180719013809 65 43 2.0 3.0 0.00 0.00 0.00 74 1019.0
20180719012809 65 43 1.0 3.0 0.00 0.00 0.00 73 1019.0
20180719011809 65 43 3.0 3.0 0.00 0.00 0.00 71 1019.0
20180719010809 64 43 3.0 3.0 0.00 0.00 0.00 70 1018.9
20180719005809 65 43 2.0 3.0 0.00 0.00 0.00 69 1019.0
20180719004810 65 43 3.0 5.0 0.00 0.00 0.00 66 1019.2
20180719003810 66 43 3.0 7.0 0.00 0.00 0.00 69 1019.1
20180719002809 65 43 6.0 10.0 0.00 0.00 0.00 65 1019.1
20180719001809 65 44 3.0 7.0 0.00 0.00 0.00 65 1019.3
20180719000809 65 44 6.0 12.0 0.00 0.00 0.00 64 1019.3
20180718235810 65 48 2.0 10.0 0.00 0.00 0.00 64 1019.4
20180718230820 67 50 3.0 7.0 0.00 0.00 0.00 61 1019.4
20180718225809 67 50 4.0 9.0 0.00 0.00 0.00 61 1019.3
20180718223809 67 48 4.0 6.0 0.00 0.00 0.00 62 1019.3
20180718221809 67 48 0.0 9.0 0.00 0.00 0.00 63 1019.3
20180718220810 67 48 3.0 10.0 0.00 0.00 0.00 64 1019.1
20180718215809 67 47 7.0 12.0 0.00 0.00 0.00 62 1019.0
20180718214809 67 47 4.0 10.0 0.00 0.00 0.00 64 1019.0
20180718213809 67 44 3.0 7.0 0.00 0.00 0.00 63 1019.0
20180718212810 67 44 5.0 9.0 0.00 0.00 0.00 64 1018.9
20180718211809 67 43 3.0 9.0 0.00 0.00 0.00 64 1018.7
20180718210809 67 5 4.0 9.0 0.00 0.00 0.00 64 1018.5
20180718205810 67 355 5.0 10.0 0.00 0.00 0.00 67 1018.6
20180718204810 67 245 3.0 9.0 0.00 0.00 0.00 67 1018.6
20180718202809 67 239 2.0 7.0 0.00 0.00 0.00 74 1018.4
20180718195809 68 239 2.0 5.0 0.00 0.00 0.00 79 1018.0
20180718193810 68 239 3.0 6.0 0.00 0.00 0.00 78 1018.3
20180718192810 68 239 4.0 7.0 0.00 0.00 0.00 77 1018.1
20180718191809 68 239 3.0 7.0 0.00 0.00 0.00 77 1018.1
20180718190810 68 239 5.0 7.0 0.00 0.00 0.00 77 1018.2
20180718185809 68 239 3.0 7.0 0.00 0.00 0.00 78 1018.2
20180718184809 68 239 4.0 10.0 0.00 0.00 0.00 78 1018.2
20180718183809 68 235 3.0 7.0 0.00 0.00 0.00 77 1018.3
20180718182809 68 234 3.0 9.0 0.00 0.00 0.00 78 1018.2
20180718181811 69 230 7.0 12.0 0.00 0.00 0.00 78 1018.2
20180718180810 69 209 3.0 9.0 0.00 0.00 0.00 77 1018.4
20180718175809 69 208 6.0 10.0 0.00 0.00 0.00 76 1018.4
20180718174810 70 207 4.0 7.0 0.00 0.00 0.00 75 1018.4
20180718173809 70 207 3.0 7.0 0.00 0.00 0.00 74 1018.5
20180718172809 70 207 5.0 6.0 0.00 0.00 0.00 76 1018.5
20180718170809 70 207 3.0 10.0 0.00 0.00 0.00 76 1018.7
20180718165810 70 204 5.0 12.0 0.00 0.00 0.00 75 1018.6
20180718163809 70 196 7.0 14.0 0.00 0.00 0.00 74 1018.6
20180718162809 70 195 8.0 14.0 0.00 0.00 0.00 75 1018.6
20180718161810 70 195 7.0 15.0 0.00 0.00 0.00 74 1018.6
20180718155809 71 185 7.0 14.0 0.00 0.00 0.00 74 1018.5
20180718154809 71 163 10.0 13.0 0.00 0.00 0.00 74 1018.5
20180718153809 71 158 7.0 12.0 0.00 0.00 0.00 71 1018.5
20180718150810 71 142 9.0 12.0 0.00 0.00 0.00 68 1018.6
20180718145809 73 138 9.0 14.0 0.00 0.00 0.00 67 1018.6
20180718144809 73 143 8.0 13.0 0.00 0.00 0.00 68 1018.6
20180718143809 73 154 7.0 14.0 0.00 0.00 0.00 69 1018.6
20180718142810 72 160 10.0 15.0 0.00 0.00 0.00 69 1018.5
20180718141809 73 165 7.0 13.0 0.00 0.00 0.00 70 1018.6
20180718134810 73 187 7.0 14.0 0.00 0.00 0.00 70 1018.7
20180718133809 72 180 9.0 13.0 0.00 0.00 0.00 70 1018.8
20180718132809 73 179 6.0 12.0 0.00 0.00 0.00 68 1018.8
20180718131809 73 171 8.0 13.0 0.00 0.00 0.00 69 1018.8
20180718125809 73 153 5.0 12.0 0.00 0.00 0.00 68 1019.0
20180718124811 74 140 6.0 13.0 0.00 0.00 0.00 66 1018.9
20180718123809 77 120 7.0 12.0 0.00 0.00 0.00 54 1018.9
20180718122809 77 54 5.0 13.0 0.00 0.00 0.00 54 1018.8
20180718121809 76 42 6.0 13.0 0.00 0.00 0.00 55 1019.0
20180718120809 76 38 3.0 12.0 0.00 0.00 0.00 56 1019.2
20180718115809 76 26 2.0 12.0 0.00 0.00 0.00 58 1019.3
20180718114809 74 0 3.0 7.0 0.00 0.00 0.00 59 1019.3
20180718113809 73 355 4.0 16.0 0.00 0.00 0.00 67 1019.3
20180718112809 73 114 5.0 14.0 0.00 0.00 0.00 65 1019.5
20180718110809 73 54 3.0 13.0 0.00 0.00 0.00 62 1019.4
20180718105809 73 52 10.0 16.0 0.00 0.00 0.00 64 1019.1
20180718104811 72 171 2.0 12.0 0.00 0.00 0.00 68 1019.2
20180718103809 74 56 4.0 12.0 0.00 0.00 0.00 59 1019.2
20180718102809 74 61 3.0 12.0 0.00 0.00 0.00 59 1019.1
20180718100809 73 45 6.0 15.0 0.00 0.00 0.00 58 1019.0
20180718095809 73 46 6.0 16.0 0.00 0.00 0.00 58 1018.9
20180718093809 73 42 2.0 12.0 0.00 0.00 0.00 59 1019.0
20180718092809 73 48 6.0 13.0 0.00 0.00 0.00 59 1019.0
20180718091809 73 50 7.0 14.0 0.00 0.00 0.00 58 1018.9